Regional Weather Roundup
Issued by NWS

Home | Current Version | Previous Version | Text Only | Print | Product List | Glossary On
Versions: 1 2 3 4 5 6 7 8 9 10 11 12 13 14 15 16 17 18 19 20 21 22 23 24 25 26 27 28 29 30 31 32 33 34 35 36 37 38 39 40 41 42 43 44 45 46 47 48 49 50
798
ASUS45 KREV 100110
RWRNV
NEVADA REGIONAL WEATHER ROUNDUP
NATIONAL WEATHER SERVICE RENO NV
500 PM PST TUE FEB 09 2016

NOTE: "FAIR" INDICATES FEW OR NO CLOUDS BELOW 12,000 FEET WITH NO
SIGNIFICANT WEATHER AND/OR OBSTRUCTIONS TO VISIBILITY.

NVZ001-003-004-100200-
WESTERN NEVADA

CITY           SKY/WX    TMP DP  RH WIND       PRES   REMARKS
RENO           MOCLDY    57  35  43 SE6       30.32F
CARSON CITY    FAIR      50  36  57 E12       30.35S
MINDEN         FAIR      54  34  47 N6        30.36S
SLIDE MTN        N/A     43  18  36 SW10        N/A
PYRAMID LAKE     N/A     52 N/A N/A N1          N/A
FALLON         MOCLDY    54  37  52 NE3       30.34F
LOVELOCK       FAIR      50  35  56 S6        30.34F
HAWTHORNE      CLEAR     52  39  62 CALM      30.35F
$$

NVZ002-CAZ072-073-100200-
NORTHERN AND CENTRAL SIERRA

CITY           SKY/WX    TMP DP  RH WIND       PRES   REMARKS
S. LAKE TAHOE  MOCLDY    42  30  62 CALM      30.37S
TRUCKEE        MOCLDY    52  34  50 CALM      30.35F
SQUAW VLY 8000   N/A     45  23  42 SW6         N/A
SUSANVILLE     CLEAR     54  34  47 SE3       30.33F
BLUE CANYON    MOCLDY    61  26  26 SW3       30.33S
MAMMOTH LAKES  FAIR      48  16  27 CALM      30.43S
BRIDGEPORT     FAIR      51  19  28 N5        30.38R
$$

NVZ030-031-036-100200-
NORTHERN NEVADA

CITY           SKY/WX    TMP DP  RH WIND       PRES   REMARKS
ELKO           CLOUDY    30  21  69 E7        30.45F
WINNEMUCCA     CLEAR     47  29  49 NE14      30.36S
WENDOVER       CLOUDY    34  28  80 CALM      30.52S
$$

NVZ035-037-100200-
CENTRAL NEVADA

CITY           SKY/WX    TMP DP  RH WIND       PRES   REMARKS
ELY            PTCLDY    29  22  75 S10       30.45S
EUREKA           N/A     22  16  78 SW6       30.44F
$$

NVZ013-014-100200-
SOUTH CENTRAL NEVADA

CITY           SKY/WX    TMP DP  RH WIND       PRES   REMARKS
TONOPAH        CLEAR     47  36  65 CALM      30.39F
$$

NVZ017-020-022-100200-
SOUTHERN NEVADA

CITY           SKY/WX    TMP DP  RH WIND       PRES   REMARKS
LAS VEGAS      CLEAR     71  25  17 CALM      30.22S
N. LAS VEGAS   CLEAR     71  26  18 CALM      30.25F
NELLIS AFB     CLEAR     71  29  20 W3        30.24S
HENDERSON      CLEAR     69  28  21 NW3       30.28S
MERCURY        CLEAR     68  19  15 E9        30.27S
$$




USA.gov is the U.S. government's official web portal to all federal, state and local government web resources and services.